Palmer, AK

9:26 AM AKDT on May 23, 2017 (GMT -0800)
Palmer Municipal

Weather History for PAAQ - December, 2012

Change the Weather History Date:

Tuesday, December 25, 2012

  Actual Average Record
Temperature  
Mean Temperature 27 °F -  
Max Temperature 35 °F 27 °F 48 °F (1962)
Min Temperature 19 °F 9 °F -25 °F (1961)
Degree Days  
Heating Degree Days 38    
Moisture  
Dew Point 12 °F    
Average Humidity 61    
Maximum Humidity 75    
Minimum Humidity 49    
Precipitation  
Precipitation 0.00 in - - ()
Sea Level Pressure  
Sea Level Pressure 29.59 in    
Wind  
Wind Speed 10 mph (North)    
Max Wind Speed 21 mph    
Max Gust Speed 26 mph    
Visibility 7 miles    
Events Snow    
Averages and records for this station are not official NWS values.
T = Trace of Precipitation, MM = Missing Value Source: NWS Daily Summary

Daily Weather History Graph

Daily Weather History Graph

Search for Another Location

Airport or City:

Trip Planner

Search our weather history database for the weather conditions in past years. The results will help you decide how hot, cold, wet, or windy it might be!

Date:

Astronomy

Dec. 25, 2012 Rise Set
Actual Time 10:16 AM AKST 3:37 PM AKST
Civil Twilight 9:12 AM AKST 4:41 PM AKST
Nautical Twilight 8:12 AM AKST 5:41 PM AKST
Astronomical Twilight 7:17 AM AKST 6:36 PM AKST
Moon 2:07 PM AKST (12/25) 7:40 AM AKST (12/25)
Length of Visible Light 7h 28m
Length of Day
5h 20m
Waxing Gibbous, 94% of the Moon is Illuminated
Dec 25
Waxing Gibbous
Dec 28
Full
Jan 4
Last Quarter
Jan 11
New
Jan 18
First Quarter

Hourly Weather History & Observations

Time (AKST) Temp. Windchill Dew Point Humidity Pressure Visibility Wind Dir Wind Speed Gust Speed Precip Events Conditions
12:53 AM 27.0 °F 17.3 °F 19.0 °F 72% 29.55 in 10.0 mi North 10.4 mph - 0.00 in   Overcast
1:53 AM 24.1 °F 11.5 °F 12.9 °F 62% 29.56 in 10.0 mi NNW 15.0 mph 23.0 mph N/A   Overcast
3:10 AM 35.6 °F 28.6 °F 28.4 °F 75% 29.54 in 10.0 mi SSE 9.2 mph 24.2 mph N/A   Overcast
3:53 AM 24.1 °F 15.2 °F 12.9 °F 62% 29.55 in 10.0 mi North 8.1 mph 16.1 mph N/A   Mostly Cloudy
4:53 AM 23.0 °F 17.0 °F 10.9 °F 60% 29.55 in 10.0 mi Variable 4.6 mph 16.1 mph N/A   Clear
5:53 AM 34.0 °F 23.0 °F 19.9 °F 56% 29.54 in 10.0 mi East 18.4 mph 26.5 mph N/A   Clear
6:53 AM 25.0 °F 15.5 °F 10.0 °F 53% 29.53 in 10.0 mi North 9.2 mph - N/A   Clear
7:53 AM 27.0 °F 16.1 °F 10.9 °F 51% 29.53 in 10.0 mi NNE 12.7 mph 20.7 mph N/A   Overcast
8:53 AM 26.1 °F 14.0 °F 10.0 °F 51% 29.53 in 10.0 mi North 15.0 mph 19.6 mph N/A   Overcast
9:53 AM 26.1 °F 15.6 °F 9.0 °F 49% 29.53 in 10.0 mi NNW 11.5 mph - N/A   Scattered Clouds
10:53 AM 26.1 °F 12.0 °F 9.0 °F 49% 29.54 in 10.0 mi North 20.7 mph 26.5 mph N/A   Scattered Clouds
11:53 AM 24.1 °F 12.0 °F 9.0 °F 53% 29.55 in 10.0 mi North 13.8 mph - N/A   Mostly Cloudy
12:53 PM 25.0 °F 13.1 °F 9.0 °F 51% 29.57 in 10.0 mi NNW 13.8 mph - N/A   Mostly Cloudy
1:53 PM 26.1 °F 17.6 °F 10.9 °F 53% 29.59 in 10.0 mi North 8.1 mph - N/A   Overcast
2:27 PM 24.8 °F 16.9 °F 12.2 °F 59% 29.58 in 6.0 mi North 6.9 mph - 0.00 in Snow Light Snow
2:45 PM 24.8 °F 19.1 °F 15.8 °F 69% 29.59 in 2.0 mi North 4.6 mph - 0.00 in Snow Light Snow
2:53 PM 25.0 °F 20.7 °F 16.0 °F 69% 29.61 in 2.0 mi NW 3.5 mph - 0.00 in Snow Light Snow
3:14 PM 21.2 °F 9.5 °F 12.2 °F 68% 29.59 in 1.8 mi North 11.5 mph - 0.00 in Snow Light Snow
3:41 PM 21.2 °F 10.1 °F 10.4 °F 63% 29.59 in 2.0 mi North 10.4 mph - 0.00 in Snow Light Snow
3:53 PM 23.0 °F 13.9 °F 10.9 °F 60% 29.61 in 4.0 mi North 8.1 mph - 0.00 in Snow Light Snow
4:29 PM 21.2 °F 10.9 °F 10.4 °F 63% 29.60 in 2.5 mi North 9.2 mph - 0.00 in Snow Light Snow
4:39 PM 21.2 °F 11.7 °F 10.4 °F 63% 29.60 in 3.0 mi North 8.1 mph - 0.00 in Snow Light Snow
4:53 PM 21.9 °F 12.5 °F 10.0 °F 60% 29.62 in 3.0 mi NNW 8.1 mph - 0.00 in Snow Light Snow
5:10 PM 21.2 °F 11.7 °F 10.4 °F 63% 29.61 in 2.5 mi North 8.1 mph - 0.00 in Snow Light Snow
5:34 PM 21.2 °F 12.6 °F 12.2 °F 68% 29.61 in 3.0 mi North 6.9 mph - 0.00 in Snow Light Snow
5:42 PM 21.2 °F 13.6 °F 12.2 °F 68% 29.61 in 2.5 mi North 5.8 mph - 0.00 in Snow Light Snow
5:53 PM 21.9 °F 13.4 °F 10.9 °F 63% 29.63 in 3.0 mi North 6.9 mph - 0.00 in Snow Light Snow
6:17 PM 21.2 °F 12.6 °F 10.4 °F 63% 29.62 in 5.0 mi North 6.9 mph - 0.00 in Snow Light Snow
6:53 PM 21.9 °F 13.4 °F 10.0 °F 60% 29.64 in 6.0 mi NNW 6.9 mph - 0.00 in Snow Light Snow
7:53 PM 21.0 °F 12.4 °F 8.1 °F 57% 29.63 in 8.0 mi North 6.9 mph - 0.00 in   Overcast
8:28 PM 21.2 °F 14.9 °F 10.4 °F 63% 29.62 in 10.0 mi North 4.6 mph - N/A   Overcast
8:53 PM 19.9 °F 14.9 °F 12.9 °F 74% 29.64 in 10.0 mi NE 3.5 mph - N/A   Overcast
9:26 PM 21.2 °F 11.7 °F 8.6 °F 58% 29.63 in 10.0 mi North 8.1 mph - N/A   Overcast
9:42 PM 21.2 °F 11.7 °F 8.6 °F 58% 29.63 in 10.0 mi North 8.1 mph - N/A   Overcast
9:53 PM 21.0 °F 10.6 °F 6.1 °F 53% 29.65 in 10.0 mi North 9.2 mph - N/A   Overcast
10:53 PM 19.9 °F 10.1 °F 8.1 °F 60% 29.65 in 10.0 mi North 8.1 mph - N/A   Overcast
11:53 PM 19.9 °F 12.1 °F 8.1 °F 60% 29.65 in 10.0 mi North 5.8 mph - N/A   Mostly Cloudy